DW7572 Weather Reports


Display with metric or nautical units.
time (UTC)temp
F
wind
direction
speed
MPH
gust
MPH
rain 1hr
in
rain 24hr
in
rain mn
in
humidity
%
barometer
mb
20200217183015 33 112 4.0 6.0 0.00 0.00 0.00 92 1010.6
20200217180015 33 112 3.0 6.0 0.00 0.00 0.00 92 1010.9
20200217173020 33 157 3.0 7.0 0.00 0.00 0.00 92 1011.0
20200217170015 32 157 8.0 15.0 0.00 0.00 0.00 92 1010.8
20200217163017 31 135 13.0 17.0 0.00 0.00 0.00 92 1010.3
20200217160018 30 135 12.0 16.0 0.00 0.00 0.00 92 1010.4
20200217153017 29 157 11.0 15.0 0.00 0.00 0.00 93 1010.4
20200217150017 27 157 12.0 18.0 0.00 0.00 0.00 94 1010.5
20200217143017 25 157 13.0 16.0 0.00 0.00 0.00 94 1010.2
20200217140020 25 157 13.0 17.0 0.00 0.00 0.00 94 1010.3
20200217133016 25 135 12.0 15.0 0.00 0.00 0.00 94 1010.4
20200217130017 24 135 10.0 13.0 0.00 0.00 0.00 94 1010.5
20200217123016 23 135 8.0 11.0 0.00 0.00 0.00 94 1010.8
20200217120016 22 135 6.0 8.0 0.00 0.00 0.00 93 1011.0
20200217113016 22 135 6.0 8.0 0.00 0.00 0.00 93 1011.1
20200217110016 22 135 6.0 9.0 0.00 0.00 0.00 93 1011.3
20200217103021 23 135 7.0 10.0 0.00 0.00 0.00 93 1011.2
20200217100016 22 135 8.0 11.0 0.00 0.00 0.00 93 1011.2
20200217093016 21 135 8.0 10.0 0.00 0.00 0.00 93 1011.2
20200217090016 18 112 5.0 7.0 0.00 0.00 0.00 93 1011.7
20200217083016 18 90 5.0 7.0 0.00 0.00 0.00 92 1012.2
20200217080016 18 112 3.0 6.0 0.00 0.00 0.00 91 1012.6
20200217073016 21 135 4.0 6.0 0.00 0.00 0.00 91 1013.0
20200217070019 22 112 4.0 7.0 0.00 0.00 0.00 91 1013.2
20200217063016 21 112 4.0 6.0 0.00 0.00 0.00 91 1013.4
20200217060017 21 112 4.0 7.0 0.00 0.00 0.00 90 1013.7
20200217053016 21 112 7.0 9.0 0.00 0.00 0.00 89 1013.5
20200217050016 21 112 8.0 10.0 0.00 0.00 0.00 88 1013.8
20200217043017 22 112 8.0 11.0 0.00 0.00 0.00 87 1014.2
20200217040016 22 112 9.0 12.0 0.00 0.00 0.00 86 1014.6
20200217033020 22 112 10.0 13.0 0.00 0.00 0.00 85 1014.6
20200217030016 23 112 10.0 13.0 0.00 0.00 0.00 84 1014.9
20200217023016 25 112 10.0 14.0 0.00 0.00 0.00 84 1015.4
20200217020017 24 90 11.0 15.0 0.00 0.00 0.00 84 1015.4
20200217013016 24 90 11.0 16.0 0.00 0.00 0.00 84 1015.6
20200217010016 25 90 11.0 14.0 0.00 0.00 0.00 84 1015.9
20200217003016 25 90 10.0 14.0 0.00 0.00 0.00 83 1016.0
20200217000019 25 90 11.0 15.0 0.00 0.00 0.00 80 1016.2
20200216233017 26 112 11.0 14.0 0.00 0.00 0.00 79 1016.2
20200216230016 26 112 11.0 14.0 0.00 0.00 0.00 78 1016.1
20200216223015 27 90 11.0 16.0 0.00 0.00 0.00 77 1016.2
20200216220016 27 90 12.0 17.0 0.00 0.00 0.00 74 1016.1
20200216213015 27 90 12.0 16.0 0.00 0.00 0.00 76 1016.0
20200216210015 27 90 13.0 17.0 0.00 0.00 0.00 76 1015.8
20200216203019 27 90 12.0 16.0 0.00 0.00 0.00 77 1016.2
20200216200015 27 90 10.0 14.0 0.00 0.00 0.00 77 1016.4
20200216193015 27 90 10.0 13.0 0.00 0.00 0.00 80 1016.7
20200216190015 26 112 10.0 13.0 0.00 0.00 0.00 80 1017.3